map of CNS home
CNS - Airport
Location
City:  Cairns, Queensland, Australia
Name:Cairns International Airport
ICAO:YBCS
IATA:CNS

Details
Type:Airport (Aerodrome, Airfield)
Use:Public/Civil, International (customs port of entry)
Latitude:16°53'09"S (-16.885832)
Longitude:145°45'19"E (145.755278)
Datum:WGS 1984
Elevation:10 ft (3 m)
Variation:6.73°E (WMM2015 magnetic declination)
-0.03° annual change
Runways:2
Longest:10489 × 148 ft (3197 × 45 m), paved

Time
Time Zone:UTC+10
Local Time:

Weather
METAR:YBCS 230030Z 15012KT 9999 FEW026 SCT055 28/21 Q1016 NOSIG
TAF:YBCS 221701Z 2218/2318 16008KT 9999 FEW022 SCT040
FM230000 13014KT 9999 FEW025 SCT045
FM230800 16008KT 9999 -SHRA SCT022 BKN040

Related Locations
Nearby:
Farthest:NTO: 11843 mi / 19059 km
Ponta do Sol [Agostinho Neto], Ribeira Grande, Santo Antão, CV

Find:

   beyond  
but within

Other Information
Maps:
NOTAMs:
Links:
Sources:

  
flag of Australia
flag of Queensland
  

Sectional Chart

Flight Planning
at skyvector.com

Satellite Image

Google Maps Satellite view

 

Copyright © 2004-2017 Karl L. Swartz. All rights reserved.
The Great Circle Mapper name and logo are trademarks of the Great Circle Mapper.
All other trademarks mentioned herein belong to their respective owners.
Please see credits for attibutions and further copyright information.

  Follow gcmap on Facebook Follow gcmap on Twitter Follow gcmap on Google+ GCmap on LinkedIn

hCard Microformat

Geo Microformat